Regional Weather Roundup
Issued by NWS

Home | Current Version | Previous Version | Graphics & Text | Print | Product List | Glossary On
Versions: 1 2 3 4 5 6 7 8 9 10 11 12 13 14 15 16 17 18 19 20 21 22 23 24 25 26 27 28 29 30 31 32 33 34 35 36 37 38 39 40 41 42 43 44 45 46 47 48 49 50
048
ASUS43 KIND 210009
RWRIN

WEATHER ROUNDUP FOR INDIANA
NATIONAL WEATHER SERVICE INDIANAPOLIS IN
700 PM EST MON FEB 20 2017

NOTE: "FAIR" INDICATES FEW OR NO CLOUDS BELOW 12,000 FEET WITH NO
SIGNIFICANT WEATHER AND/OR OBSTRUCTIONS TO VISIBILITY.

* - STATION DOES NOT REPORT WEATHER SUCH AS PRECIPITATION OR FOG.

+ - STATION NOT QUALITY CONTROLLED BY THE NATIONAL WEATHER SERVICE.
    USE DATA WITH CAUTION...ESPECIALLY DEWPOINT AND RELATIVE
    HUMIDITY OBSERVATIONS.

INZ001>003-010>013-019-020-210100-
NORTHWEST INDIANA

CITY           SKY/WX    TMP DP  RH WIND       PRES   REMARKS
GARY /AIRPORT/ MOCLDY    64  41  42 SE12G23   30.00F
KNOX *+        CLOUDY    57  18  21 SE10      30.05R
LA PORTE +     CLOUDY    56  41  58 SE9       30.05R
6HR MIN TEMP:  56; 6HR MAX TEMP:  65;

MICHIGAN CITY+ MOCLDY    61  39  44 SE7       30.03F
MONTICELLO +   PTCLDY    60  44  55 SE5       30.04S
6HR MIN TEMP:  60; 6HR MAX TEMP:  66;

RENSSELAER +   CLOUDY    61  43  51 SE10      30.03S
VALPARAISO     CLOUDY    61  44  53 SE9       30.03F
6HR MIN TEMP:  61; 6HR MAX TEMP:  68;


$$

LMZ046-743>745-210100-
SOUTHERN LAKE MICHIGAN

STATION/POSITION TIME  TEMP    WIND        PRES    WAVE
                       AIR SEA DIR/SP/G            HT
                 (UTC) (F)     (DEG/KT/KT) (MB)    (FT)
BURNS HARBOR     0001   63     150/ 13/ 20 1016.3
MICHIGAN CITY    2340   63     120/ 16/ 20   N/A

$$

INZ004-005-014>016-021>024-210100-
NORTH CENTRAL INDIANA

CITY           SKY/WX    TMP DP  RH WIND       PRES   REMARKS
ELKHART        CLEAR     57  41  54 SE8       30.07S
GOSHEN         CLOUDY    57  40  52 SE10      30.08S
6HR MIN TEMP:  56; 6HR MAX TEMP:  65;

LOGANSPORT +   CLOUDY    54  43  66 E8        30.06F
PERU/GRISSOM   CLOUDY    56  44  63 SE8       30.06S
6HR MIN TEMP:  56; 6HR MAX TEMP:  66;

ROCHESTER +    CLOUDY    61  41  48 SE8       30.07S
SOUTH BEND     CLOUDY    58  42  55 SE10      30.07S
6HR MIN TEMP:  58; 6HR MAX TEMP:  64;

WARSAW +       CLOUDY    55  41  58 SE6       30.09R

$$

INZ006>009-017-018-025>027-210100-
NORTHEAST INDIANA

CITY           SKY/WX    TMP DP  RH WIND       PRES   REMARKS
ANGOLA *+      CLEAR     48  37  66 E12       30.11S
AUBURN +       CLOUDY    55  37  50 E12       30.11F
FORT WAYNE     CLOUDY    55  41  59 SE8       30.11R
6HR MIN TEMP:  55; 6HR MAX TEMP:  65;

HUNTINGTON +   CLOUDY    54  39  57 SE7       30.10R
6HR MIN TEMP:  54; 6HR MAX TEMP:  65;

KENDALLVILLE + CLOUDY    55  39  56 E9        30.10S

$$

INZ028-029-035-036-043>045-051>053-210100-
WEST CENTRAL INDIANA

CITY           SKY/WX    TMP DP  RH WIND       PRES   REMARKS
GREENCASTLE +  CLOUDY    54  43  66 SE6       30.05S
LAFAYETTE      CLOUDY    61  48  62 SE9       30.03F
6HR MIN TEMP:  61; 6HR MAX TEMP:  68;

TERRE HAUTE    CLOUDY    63  46  54 SE6       30.03R
6HR MIN TEMP:  57; 6HR MAX TEMP:  70;


$$

INZ030>032-037>040-046>048-054>057-064-065-210100-
CENTRAL INDIANA

CITY           SKY/WX    TMP DP  RH WIND       PRES   REMARKS
COLUMBUS       CLEAR     59  48  67 E7        30.07F
FRANKFORT +    CLOUDY    58  46  65 SE7       30.07S
6HR MIN TEMP:  58; 6HR MAX TEMP:  70;

GREENWOOD *+   PTCLDY    60  49  65 SE5       30.08S
6HR MIN TEMP:  58; 6HR MAX TEMP:  66;

INDIANAPOLIS   CLOUDY    60  47  61 E8        30.06S
6HR MIN TEMP:  59; 6HR MAX TEMP:  66;

-EAGLE CREEK   CLOUDY    62  46  55 SE7       30.06S
6HR MIN TEMP:  59; 6HR MAX TEMP:  67;

KOKOMO +       CLOUDY    56  45  66 E8        30.08S
6HR MIN TEMP:  56; 6HR MAX TEMP:  66;

MARION +       CLOUDY    55  43  62 SE9       30.09S
MT COMFORT *+  PTCLDY    57  48  72 SE7       30.09S
SHELBYVILLE    CLOUDY    60  46  59 SE8       30.07F
6HR MIN TEMP:  59; 6HR MAX TEMP:  67;

ZIONSVILLE +   MOCLDY    58  47  65 SE8       30.07F
6HR MIN TEMP:  58; 6HR MAX TEMP:  66;


$$

INZ033-034-041-042-049-050-058-059-210100-
EAST CENTRAL INDIANA

CITY           SKY/WX    TMP DP  RH WIND       PRES   REMARKS
MUNCIE         CLOUDY    59  43  55 SE6       30.09S
6HR MIN TEMP:  59; 6HR MAX TEMP:  67;


$$

INZ060-061-067>069-081>083-085>088-210100-
SOUTHWEST INDIANA

CITY           SKY/WX    TMP DP  RH WIND       PRES   REMARKS
EVANSVILLE     PTCLDY    65  47  52 SE3       30.03F
6HR MIN TEMP:  65; 6HR MAX TEMP:  74;

HUNTINGBURG *+ CLOUDY    63  49  60 CALM      30.04S
6HR MIN TEMP:  63; 6HR MAX TEMP:  72;

WASHINGTON +   CLOUDY    59  47  64 SE5       30.03S
6HR MIN TEMP:  59; 6HR MAX TEMP:  72;


$$

INZ062-063-066-070>080-084-089>092-210100-
SOUTH CENTRAL AND SOUTHEAST INDIANA

CITY           SKY/WX    TMP DP  RH WIND       PRES   REMARKS
BLOOMINGTON    CLOUDY    61  46  57 E5        30.04F
6HR MIN TEMP:  61; 6HR MAX TEMP:  69;

MADISON *+     PTCLDY    63  43  48 E3        30.10S
NORTH VERNON + PTCLDY    64  45  48 SE3       30.08S

$$





USA.gov is the U.S. government's official web portal to all federal, state and local government web resources and services.